Temp
66 66 67 67 67 68 67 67 63 57 58 63 62 68 67 67 60 64 66 56 58 60 62 62 61 62 62 62 62 62 63 62 62 63 64 64 64 64
67 67 66 67 67 67 65 66 65 63 59 65 65 66 67 68 59 67 67 55 56 59 60 59 59 59 60 60 61 61 61 61 62 62 63 64 64 64
67 66 66 67 66 66 65 65 64 64 61 63 66 66 65 65 61 65 60 64 60 56 58 58 58 57 58 58 59 59 60 60 61 62 62 63 63 63
66 66 65 67 66 66 65 64 64 65 63 60 64 63 64 65 64 62 65 66 65 56 57 57 57 57 57 57 56 57 57 58 58 58 59 60 61 61
67 66 66 66 64 65 65 64 64 65 64 63 60 62 62 64 63 63 63 62 65 55 56 56 56 56 56 56 55 56 55 55 55 55 56 56 57 58
67 66 66 66 65 64 64 64 64 63 62 61 61 61 60 61 61 59 58 60 61 64 59 59 57 55 55 56 55 53 52 53 54 55 55 54 54 55
66 66 66 63 57 62 64 63 63 61 61 60 60 59 59 57 58 60 59 60 61 62 60 60 58 57 56 53 54 51 51 52 53 54 54 54 53 53
64 65 66 55 56 55 56 57 62 62 60 60 61 59 60 60 60 60 60 58 56 62 59 59 60 59 60 59 57 55 52 52 52 52 53 53 52 52
65 64 64 65 58 62 55 55 55 56 60 64 61 62 62 63 62 60 59 59 58 60 59 56 57 56 60 61 55 54 52 52 51 51 51 52 52 51
65 65 64 64 62 63 62 60 62 61 61 63 65 65 66 66 65 64 62 61 60 55 58 54 57 55 58 58 53 52 52 51 50 51 51 51 50 50
64 65 65 64 59 54 61 60 60 61 57 54 56 57 57 57 61 62 58 56 54 54 55 54 57 54 55 55 54 51 51 51 51 51 51 51 50 50
59 62 53 63 55 52 60 60 58 59 61 59 58 55 54 57 53 63 61 56 54 52 55 53 53 54 48 53 54 50 49 50 50 50 51 50 50 49
49 52 58 50 52 51 55 61 60 62 58 60 59 59 60 60 57 61 62 60 57 56 56 57 52 51 48 49 51 52 52 52 51 50 49 49 49 49
40 42 43 43 45 47 51 56 54 54 61 59 59 57 58 58 58 59 61 62 61 61 57 58 47 53 48 42 46 50 50 51 51 51 52 51 50 50
39 41 42 42 44 46 46 49 50 57 59 58 57 58 58 59 59 56 58 58 57 55 55 57 50 54 51 44 41 43 44 47 48 50 50 49 49 48
37 38 40 41 41 40 42 43 49 56 57 57 58 59 59 57 56 56 53 52 51 43 45 51 53 50 42 49 48 44 45 42 45 48 47 47 47 46
34 34 33 33 33 34 36 35 37 38 39 48 55 55 55 54 53 53 49 41 46 45 39 35 40 45 43 43 39 46 45 39 44 42 38 37 43 45
30 28 27 27 27 28 29 29 31 33 33 35 35 39 46 48 42 35 35 43 46 43 43 35 35 35 36 38 41 36 37 39 39 38 35 35 37 42
27 26 25 25 25 26 26 26 26 28 30 32 32 33 33 34 35 38 35 39 34 34 33 33 34 34 36 39 34 38 35 34 34 34 35 35 35 39
26 25 25 25 24 24 25 25 26 27 27 27 29 31 32 32 33 33 34 34 34 33 32 32 32 32 33 33 33 32 35 34 33 33 33 34 36 39
24 24 24 25 25 24 25 25 25 25 25 26 26 27 28 30 30 31 33 34 34 32 28 27 30 33 32 32 32 32 32 34 33 31 30 28 28 29
23 23 23 24 24 24 24 24 24 23 24 24 25 26 27 28 28 28 29 28 28 28 27 28 29 30 30 30 29 29 30 31 32 36 37 35 26 22
22 23 22 22 23 22 23 23 22 22 22 22 23 25 26 25 27 27 28 28 27 27 27 26 27 28 27 27 27 27 27 28 29 29 30 36 36 36
MSLP
1017.83 1018.29 1018.70 1019.08 1019.46 1019.81 1019.94 1020.31 1020.57 1021.16 1021.78 1022.04 1022.47 1022.78 1023.20 1023.56 1024.17 1024.60 1024.78 1025.31 1025.70 1026.04 1026.17 1026.28 1026.45 1026.63 1026.85 1026.97 1027.13 1027.25 1027.33 1027.46 1027.53 1027.52 1027.57 1027.54 1027.49 1027.55
1017.30 1017.80 1018.24 1018.66 1019.11 1019.55 1019.92 1020.12 1020.27 1020.44 1020.94 1021.19 1021.74 1022.29 1022.79 1023.26 1023.92 1024.11 1024.36 1024.91 1025.31 1025.68 1025.89 1026.06 1026.25 1026.40 1026.56 1026.70 1026.86 1027.04 1027.21 1027.30 1027.40 1027.39 1027.38 1027.41 1027.34 1027.32
1016.75 1017.28 1017.78 1018.22 1018.73 1019.27 1019.73 1020.04 1020.23 1020.37 1020.54 1020.73 1021.33 1021.97 1022.70 1023.12 1023.75 1023.81 1024.23 1024.56 1024.98 1025.37 1025.63 1025.81 1026.07 1026.22 1026.38 1026.52 1026.62 1026.78 1026.88 1027.03 1027.12 1027.14 1027.16 1027.16 1027.16 1027.16
1016.09 1016.77 1017.21 1017.76 1018.26 1018.70 1019.21 1019.67 1020.00 1020.17 1020.39 1020.85 1021.24 1021.77 1022.32 1022.69 1023.16 1023.65 1023.87 1024.17 1024.37 1024.92 1025.27 1025.50 1025.74 1025.96 1026.14 1026.28 1026.35 1026.49 1026.61 1026.69 1026.80 1026.92 1026.95 1026.97 1026.99 1026.94
1015.21 1016.00 1016.52 1017.14 1017.75 1018.11 1018.57 1019.15 1019.62 1019.89 1020.17 1020.46 1021.11 1021.64 1022.11 1022.50 1022.93 1023.27 1023.57 1023.94 1024.17 1024.39 1024.86 1025.18 1025.45 1025.60 1025.76 1025.91 1026.10 1026.19 1026.32 1026.41 1026.50 1026.61 1026.72 1026.78 1026.77 1026.74
1014.46 1015.07 1015.76 1016.30 1016.92 1017.49 1018.00 1018.56 1019.12 1019.61 1019.96 1020.29 1020.72 1021.35 1021.89 1022.24 1022.58 1023.10 1023.45 1023.64 1023.86 1023.97 1024.43 1024.63 1024.91 1025.14 1025.35 1025.51 1025.72 1025.79 1025.92 1026.08 1026.22 1026.31 1026.43 1026.57 1026.61 1026.57
1013.74 1014.35 1014.95 1015.43 1016.00 1016.69 1017.25 1017.90 1018.49 1019.11 1019.57 1020.00 1020.43 1020.89 1021.41 1021.93 1022.23 1022.41 1022.82 1023.01 1023.20 1023.31 1023.86 1024.09 1024.43 1024.70 1024.81 1025.01 1025.14 1025.35 1025.47 1025.66 1025.83 1026.00 1026.15 1026.30 1026.39 1026.33
1012.77 1013.49 1014.19 1014.75 1015.30 1016.02 1016.54 1017.07 1017.48 1018.08 1018.69 1019.18 1019.69 1020.02 1020.33 1020.82 1021.37 1021.67 1022.07 1022.47 1022.76 1022.45 1023.01 1023.31 1023.53 1023.80 1023.89 1024.10 1024.30 1024.59 1024.94 1025.18 1025.43 1025.62 1025.79 1025.91 1025.99 1026.05
1011.96 1012.60 1013.29 1013.89 1014.59 1015.40 1015.84 1016.23 1016.58 1016.97 1017.33 1017.79 1018.46 1018.76 1019.15 1019.49 1020.08 1020.72 1021.20 1021.58 1021.65 1021.83 1022.43 1022.81 1023.00 1023.22 1023.14 1023.38 1023.69 1024.06 1024.47 1024.75 1024.97 1025.18 1025.32 1025.44 1025.64 1025.80
1011.17 1011.70 1012.19 1012.76 1013.47 1014.38 1015.12 1015.64 1015.91 1016.23 1016.52 1016.80 1017.13 1017.60 1018.04 1018.38 1018.92 1019.34 1019.92 1020.64 1021.24 1021.78 1021.87 1022.34 1022.42 1022.69 1022.70 1022.82 1023.16 1023.59 1023.96 1024.26 1024.50 1024.74 1024.96 1025.12 1025.23 1025.32
1010.50 1010.88 1011.36 1012.01 1012.64 1013.47 1014.06 1014.59 1015.07 1015.31 1015.78 1016.21 1016.53 1016.88 1017.35 1017.70 1018.04 1018.94 1019.74 1020.45 1021.00 1021.35 1021.78 1021.82 1021.97 1022.45 1022.50 1022.71 1022.80 1023.11 1023.46 1023.79 1024.08 1024.42 1024.72 1024.75 1024.84 1024.98
1010.27 1010.48 1010.65 1011.08 1011.82 1012.50 1013.22 1013.64 1014.05 1014.46 1015.11 1015.76 1016.40 1016.64 1016.90 1017.11 1017.50 1017.73 1018.47 1019.38 1019.83 1020.72 1020.64 1021.48 1021.57 1022.01 1022.79 1022.38 1022.41 1022.86 1023.27 1023.49 1023.63 1023.83 1024.10 1024.39 1024.55 1024.73
1010.74 1010.88 1010.64 1010.85 1011.03 1011.55 1012.25 1012.62 1012.92 1013.64 1014.02 1014.48 1015.04 1015.52 1015.98 1016.48 1016.93 1017.07 1017.24 1017.90 1018.38 1018.61 1018.95 1019.75 1020.42 1021.29 1021.69 1021.97 1022.13 1022.24 1022.46 1022.64 1022.97 1023.10 1023.47 1023.78 1024.16 1024.33
1012.03 1012.00 1011.56 1011.46 1011.75 1011.56 1011.50 1011.85 1012.29 1012.77 1013.20 1013.55 1013.88 1014.33 1014.72 1015.16 1015.75 1016.15 1016.26 1016.51 1016.80 1017.12 1018.04 1018.52 1019.48 1019.80 1020.65 1021.66 1021.87 1021.70 1021.86 1022.00 1022.49 1022.64 1022.57 1022.69 1023.32 1023.64
1012.67 1012.50 1011.93 1011.43 1011.93 1011.54 1011.72 1011.61 1011.77 1011.96 1012.10 1012.31 1012.41 1012.89 1013.40 1014.06 1014.54 1015.13 1015.53 1015.88 1016.38 1016.72 1017.11 1017.56 1018.14 1018.85 1019.53 1020.06 1020.90 1021.38 1021.77 1021.79 1021.95 1022.35 1022.36 1022.60 1022.66 1022.94
1012.61 1012.74 1012.69 1012.38 1012.30 1012.00 1011.78 1012.00 1011.82 1011.49 1011.16 1011.08 1011.28 1011.81 1012.34 1013.04 1013.56 1014.12 1014.77 1015.66 1016.10 1016.95 1017.16 1017.09 1017.23 1017.71 1019.09 1019.32 1019.52 1020.35 1020.88 1021.50 1021.60 1021.69 1022.07 1022.47 1022.52 1022.68
1013.83 1013.62 1013.41 1013.27 1013.31 1013.42 1013.11 1013.24 1013.07 1012.52 1012.05 1011.45 1011.09 1010.90 1011.54 1012.01 1012.71 1013.13 1013.94 1015.06 1015.50 1016.38 1017.03 1017.37 1017.48 1017.54 1018.28 1018.93 1019.54 1019.74 1019.95 1021.01 1021.04 1021.50 1021.88 1022.15 1022.22 1022.33
1014.96 1014.80 1014.98 1015.04 1015.22 1015.02 1014.78 1014.34 1014.15 1013.90 1013.46 1012.81 1012.08 1011.49 1010.97 1011.38 1012.34 1012.91 1013.43 1013.95 1014.78 1015.55 1016.15 1016.80 1017.28 1018.08 1018.82 1019.42 1019.34 1019.63 1020.00 1020.54 1021.06 1021.51 1021.89 1022.46 1022.49 1022.33
1016.24 1016.29 1016.29 1016.31 1016.50 1016.24 1016.04 1015.78 1015.44 1015.15 1014.80 1014.05 1013.46 1012.62 1012.44 1012.22 1012.67 1012.66 1012.92 1013.52 1014.41 1015.05 1015.74 1016.33 1016.97 1017.48 1018.87 1019.68 1020.09 1020.31 1020.35 1020.78 1021.38 1021.75 1022.03 1022.34 1022.64 1022.61
1017.56 1017.50 1017.44 1017.70 1017.87 1017.60 1017.46 1017.02 1016.74 1016.36 1015.76 1015.22 1014.80 1014.24 1013.92 1013.79 1013.86 1013.89 1013.78 1013.98 1014.78 1015.43 1016.38 1016.75 1017.57 1018.27 1018.64 1019.42 1020.22 1021.44 1021.24 1021.25 1021.80 1022.11 1022.42 1022.56 1022.52 1022.25
1019.10 1019.00 1018.70 1018.92 1018.94 1018.84 1018.52 1018.00 1017.91 1017.50 1017.25 1016.69 1016.52 1016.28 1015.71 1015.43 1015.42 1015.44 1015.10 1015.39 1015.32 1016.18 1017.04 1017.89 1018.64 1019.05 1019.41 1019.55 1020.45 1021.39 1022.01 1021.76 1022.29 1022.73 1022.98 1022.99 1022.63 1022.36
1020.27 1020.04 1019.88 1019.82 1019.70 1019.60 1019.57 1019.22 1018.91 1018.57 1018.25 1017.95 1017.71 1017.48 1017.50 1017.10 1017.24 1017.16 1016.86 1016.64 1016.96 1017.63 1018.49 1019.31 1019.64 1019.77 1019.90 1020.30 1020.90 1021.54 1021.97 1022.34 1022.59 1022.67 1022.97 1023.10 1023.21 1023.01
1020.99 1020.92 1020.84 1020.72 1020.55 1020.35 1020.37 1020.48 1020.11 1019.83 1019.72 1019.38 1019.13 1018.93 1018.74 1018.69 1018.49 1018.42 1018.32 1018.43 1018.62 1018.88 1019.38 1020.06 1020.50 1020.67 1021.17 1021.49 1021.73 1021.97 1022.26 1022.57 1022.81 1022.91 1022.80 1022.82 1022.92 1022.82
Wind_Speed
11 10 8 6 5 5 3 6 6 5 7 6 4 6 5 5 7 7 6 11 9 9 8 6 6 6 5 5 4 4 4 3 3 4 5 6 6 7
9 12 9 8 7 4 3 3 3 3 5 5 5 8 6 6 7 7 6 11 10 10 10 8 7 6 6 7 7 7 6 6 6 7 6 7 7 8
12 12 12 11 7 6 5 4 3 2 2 3 5 8 8 6 6 5 6 5 5 9 9 9 7 7 6 6 7 7 6 6 6 7 7 8 8 8
14 13 13 10 12 10 7 7 5 5 3 7 5 5 8 8 7 7 5 4 4 10 10 8 8 7 7 7 7 6 7 7 6 6 6 6 7 8
15 15 14 14 12 10 9 7 6 4 4 3 4 4 3 5 6 6 6 5 3 9 9 8 8 8 8 8 8 8 8 7 6 7 7 7 7 8
15 15 15 15 14 13 10 10 8 6 5 3 6 6 4 3 3 5 4 4 6 5 7 8 10 10 10 9 9 9 8 8 8 9 8 7 8 9
15 15 15 15 16 15 10 11 10 8 7 6 5 4 6 4 9 6 6 6 6 5 5 5 5 4 5 8 7 10 9 9 9 9 8 8 8 9
16 15 15 14 14 18 16 16 14 13 11 8 8 9 10 7 7 6 7 4 5 6 5 5 6 6 6 6 11 11 11 9 8 7 8 8 8 8
16 15 14 11 15 14 16 18 17 17 16 13 12 11 10 11 10 10 8 8 6 5 6 5 4 5 5 5 11 12 9 9 8 7 8 8 7 6
16 16 16 16 16 17 16 15 16 14 15 10 13 12 11 9 12 12 12 9 2 2 5 4 4 4 4 4 12 11 10 8 8 8 8 8 6 6
13 15 15 15 16 19 16 16 17 15 13 15 14 13 13 14 11 7 6 6 5 4 4 4 4 3 4 3 4 11 10 10 10 10 9 9 7 7
9 10 16 17 17 21 19 16 15 15 14 12 12 11 10 11 15 13 10 10 6 5 6 7 4 5 2 4 4 4 4 10 11 11 11 10 8 3
2 2 4 7 14 20 24 17 15 13 15 14 12 12 12 11 8 11 12 12 10 8 8 9 5 5 4 3 3 4 6 5 6 6 11 10 8 6
3 3 3 9 8 7 18 22 15 15 10 11 11 11 12 12 11 12 14 13 11 12 12 11 5 8 6 3 4 3 4 4 4 4 4 8 10 9
5 8 8 10 6 3 8 13 16 12 12 13 12 12 11 11 13 11 12 12 7 4 9 13 6 8 7 6 5 4 4 4 4 4 3 3 3 2
9 7 8 9 11 9 5 5 5 12 13 13 12 12 10 11 12 11 10 9 10 3 2 3 9 8 4 6 7 4 4 5 3 4 4 2 1 1
5 7 7 8 7 7 6 6 6 4 4 5 11 11 11 10 11 9 7 4 10 9 5 1 4 5 3 5 2 5 6 3 3 3 3 1 2 1
7 7 8 8 8 7 7 6 7 8 6 3 3 4 6 10 8 3 3 8 12 8 9 3 4 3 3 4 8 2 2 3 2 3 2 2 1 2
7 8 8 8 7 7 7 7 6 7 7 5 5 5 5 4 1 6 4 6 3 3 2 3 2 4 6 7 2 16 3 2 2 2 2 2 1 3
8 8 8 7 7 7 7 7 7 7 7 8 8 7 7 5 5 5 4 7 7 7 8 7 6 4 3 4 4 3 12 5 3 3 2 2 3 12
8 7 7 7 6 6 6 7 7 7 8 7 8 8 8 7 8 7 8 11 12 7 9 8 6 8 4 3 3 3 2 11 7 3 2 2 2 2
6 7 7 6 6 7 6 6 6 7 8 7 8 7 8 7 7 7 7 8 9 8 8 5 4 3 4 3 4 3 2 3 4 5 6 4 1 3
6 6 6 6 6 7 6 6 6 6 7 7 6 7 6 6 6 6 6 7 6 7 6 5 4 4 4 3 3 2 2 2 2 2 1 6 10 11
Wind_Direction
185 188 183 188 168 188 221 167 170 158 189 194 150 182 176 161 147 169 196 181 191 209 214 216 196 195 209 220 236 249 255 271 280 289 289 268 264 277
185 188 191 190 172 187 176 197 226 188 171 172 181 166 166 164 163 181 188 155 181 200 207 207 204 206 210 220 231 241 253 260 267 271 272 278 279 278
188 192 194 191 183 175 179 189 208 210 212 121 152 158 167 173 152 215 146 169 174 195 200 204 207 209 216 225 229 236 240 249 255 264 271 275 278 282
190 194 194 192 198 185 179 181 188 192 200 151 149 156 176 181 164 183 166 195 173 187 195 198 204 205 212 220 224 232 237 240 244 253 259 267 276 282
191 194 194 194 197 199 193 184 182 187 200 154 152 145 165 176 172 179 178 183 227 164 188 201 212 211 213 215 220 225 230 232 236 239 247 258 271 280
196 195 194 196 196 196 193 189 179 182 176 196 150 163 154 179 166 171 198 194 200 181 203 207 200 214 218 226 224 221 222 226 234 238 246 257 271 278
200 201 200 198 192 191 188 188 180 179 178 186 170 165 179 155 190 191 195 193 208 183 195 200 200 199 211 220 229 216 213 221 227 236 252 267 278 279
199 201 200 194 194 190 191 187 185 183 185 186 195 189 192 183 187 186 195 193 199 188 188 217 181 205 208 192 197 200 202 209 220 233 257 264 265 272
204 201 201 199 196 202 200 195 195 192 192 188 195 201 196 191 181 194 187 200 207 181 175 213 166 210 202 203 192 191 191 201 214 227 241 237 246 263
208 208 204 201 195 200 201 206 207 205 204 198 201 206 204 197 191 193 194 206 159 123 177 188 164 205 202 191 182 189 196 204 216 221 213 219 235 253
212 210 208 207 200 194 201 203 208 214 208 212 217 210 206 199 187 168 180 177 199 193 201 169 175 179 188 196 178 188 197 201 203 200 213 221 225 255
238 226 211 208 195 188 203 205 208 209 208 205 223 233 220 206 186 187 186 195 188 196 187 188 160 142 226 211 179 165 186 207 198 206 211 217 219 244
339 303 246 233 205 190 198 211 212 205 208 209 210 215 213 207 197 202 194 199 204 213 180 177 165 164 171 159 192 183 187 188 196 201 215 215 213 209
28 343 351 355 335 243 197 211 206 197 212 210 213 211 208 204 199 206 208 210 213 217 164 179 175 174 164 157 187 173 192 193 184 221 192 170 189 205
18 7 15 32 342 263 251 231 211 219 216 216 212 214 209 206 205 204 214 209 221 189 175 185 169 188 178 168 176 184 141 206 180 197 169 179 190 185
21 23 28 40 46 36 25 5 251 232 223 223 218 216 204 202 202 198 196 200 201 201 45 225 189 155 151 207 167 156 178 175 190 185 170 179 161 261
32 38 33 28 31 20 29 24 358 359 338 281 229 207 207 198 202 189 189 177 201 194 186 157 92 117 80 149 134 186 162 181 170 152 108 182 218 219
38 41 39 38 31 24 21 18 24 6 355 359 359 319 196 188 179 152 142 183 206 203 184 157 138 90 63 37 41 129 73 125 79 101 91 120 277 266
42 40 38 32 25 23 23 22 18 11 352 17 29 32 28 32 110 175 142 167 88 110 96 112 102 111 162 195 70 25 121 92 111 87 106 111 210 284
35 35 37 32 23 20 21 23 20 16 22 21 19 27 33 35 43 59 68 107 114 108 98 74 66 41 104 143 119 78 31 75 57 72 26 12 265 268
29 33 35 29 28 20 13 24 22 28 26 32 28 24 31 36 42 34 62 80 93 91 87 78 71 87 98 94 87 107 75 68 59 38 353 315 319 299
27 29 29 29 30 24 19 20 25 27 26 29 30 34 26 35 42 40 43 56 61 71 83 79 62 55 49 54 95 98 82 63 11 345 326 278 142 292
23 32 30 30 30 27 25 25 31 35 27 25 29 33 35 42 40 43 50 59 70 80 89 88 72 56 63 70 76 73 57 38 11 330 295 300 293 287